Weather History for Cleveland Burke, OH

Change the Weather History Date:

Tuesday, January 22, 2013

  Actual Average Record
Temperature  
Mean Temperature 10 °F -  
Max Temperature 14 °F 31 °F 63 °F (1999)
Min Temperature 6 °F 20 °F 3 °F (2000)
Degree Days  
Heating Degree Days 55    
Moisture  
Dew Point 4 °F    
Average Humidity 76    
Maximum Humidity 96    
Minimum Humidity 61    
Precipitation  
Precipitation 0.02 in - - ()
Sea Level Pressure  
Sea Level Pressure 30.22 in    
Wind  
Wind Speed 24 mph (West)    
Max Wind Speed 30 mph    
Max Gust Speed 50 mph    
Visibility 3 miles    
Events Fog , Snow    
Averages and records for this station are not official NWS values.
T = Trace of Precipitation, MM = Missing Value Source: NWS Daily Summary

Daily Weather History Graph

Daily Weather History Graph

Search for Another Location

Airport:

Trip Planner

Search our weather history database for the weather conditions in past years. The results will help you decide how hot, cold, wet, or windy it might be!

Date:

Astronomy

Jan. 22, 2013 Rise Set
Actual Time 7:46 AM EST 5:30 PM EST
Civil Twilight 7:16 AM EST 6:00 PM EST
Nautical Twilight 6:42 AM EST 6:34 PM EST
Astronomical Twilight 6:10 AM EST 7:07 PM EST
Moon 1:51 PM EST 4:07 AM EST
Length of Visible Light 10h 43m
Length of Day
9h 43m
Waxing Gibbous, 82% of the Moon is Illuminated
Jan 22
Waxing Gibbous
Jan 26
Full
Feb 3
Last Quarter
Feb 10
New
Feb 17
First Quarter

Hourly Weather History & Observations

Time (EST) Temp. Windchill Dew Point Humidity Pressure Visibility Wind Dir Wind Speed Gust Speed Precip Events Conditions
12:01 AM 14.0 °F -6.8 °F 6.8 °F 73% 30.06 in 2.0 mi West 29.9 mph 35.7 mph 0.00 in Snow Light Snow
12:08 AM 12.2 °F -9.3 °F 8.6 °F 85% 30.07 in 0.8 mi West 29.9 mph 35.7 mph 0.00 in Snow Light Snow
12:18 AM 10.4 °F -8.2 °F 8.6 °F 92% 30.07 in 0.2 mi SW 19.6 mph 36.8 mph 0.00 in Fog , Snow Heavy Snow
12:27 AM 10.4 °F -8.6 °F 6.8 °F 85% 30.07 in 0.5 mi WSW 20.7 mph 26.5 mph 0.00 in Fog , Snow Snow
12:53 AM 12.0 °F -7.7 °F 10.0 °F 92% 30.10 in 0.2 mi West 24.2 mph 42.6 mph 0.01 in Fog , Snow Heavy Snow
1:46 AM 10.4 °F -9.5 °F 8.6 °F 92% 30.09 in 0.2 mi WSW 23.0 mph 31.1 mph 0.01 in Fog , Snow Heavy Snow
1:53 AM 9.0 °F -11.0 °F 8.1 °F 96% 30.12 in 0.2 mi WSW 21.9 mph 33.4 mph 0.01 in Fog , Snow Heavy Snow
2:22 AM 8.6 °F -11.9 °F 6.8 °F 92% 30.09 in 0.2 mi WSW 23.0 mph 28.8 mph 0.00 in Fog , Snow Snow
2:53 AM 9.0 °F -11.4 °F 5.0 °F 84% 30.13 in 0.2 mi WSW 23.0 mph 32.2 mph 0.00 in Fog , Snow Snow
3:16 AM 8.6 °F -12.7 °F 6.8 °F 92% 30.11 in 0.2 mi WSW 25.3 mph 31.1 mph 0.00 in Fog , Snow Heavy Snow
3:53 AM 10.0 °F -9.5 °F 8.1 °F 92% 30.15 in 0.2 mi WSW 21.9 mph 31.1 mph 0.00 in Fog , Snow Snow
4:08 AM 10.4 °F -10.3 °F 6.8 °F 85% 30.11 in 0.5 mi WNW 25.3 mph 31.1 mph 0.00 in Snow Snow
4:15 AM 10.4 °F -10.3 °F 6.8 °F 85% 30.12 in 0.5 mi West 25.3 mph 34.5 mph 0.00 in Snow Snow
4:23 AM 10.4 °F -9.5 °F 6.8 °F 85% 30.11 in 0.5 mi West 23.0 mph 33.4 mph 0.00 in Snow Snow
4:53 AM 10.9 °F -9.6 °F 5.0 °F 77% 30.15 in 0.5 mi WNW 25.3 mph 34.5 mph 0.00 in Snow Snow
5:12 AM 10.4 °F -11.7 °F 5.0 °F 79% 30.12 in 0.5 mi WNW 29.9 mph 36.8 mph 0.00 in Snow Snow
5:53 AM 10.0 °F -11.1 °F 5.0 °F 80% 30.17 in 0.5 mi WNW 26.5 mph 39.1 mph 0.00 in Snow Snow
6:53 AM 10.0 °F -12.2 °F 5.0 °F 80% 30.20 in 0.8 mi WNW 29.9 mph 36.8 mph 0.00 in Snow Light Snow
7:39 AM 8.6 °F -12.7 °F 3.2 °F 79% 30.18 in 1.0 mi WNW 25.3 mph 36.8 mph 0.00 in Snow Light Snow
7:53 AM 9.0 °F -13.0 °F 1.9 °F 73% 30.23 in 1.2 mi West 27.6 mph 38.0 mph 0.00 in Snow Light Snow
8:03 AM 8.6 °F -13.1 °F 3.2 °F 79% 30.19 in 1.8 mi WNW 26.5 mph 35.7 mph 0.00 in Snow Light Snow
8:15 AM 8.6 °F -13.8 °F 1.4 °F 73% 30.20 in 0.8 mi West 28.8 mph 35.7 mph 0.00 in Snow Light Snow
8:53 AM 8.1 °F -13.8 °F 1.9 °F 76% 30.25 in 1.0 mi WNW 26.5 mph 35.7 mph 0.00 in Snow Light Snow
9:43 AM 8.6 °F -12.3 °F 1.4 °F 73% 30.24 in 2.0 mi West 24.2 mph 38.0 mph 0.00 in Snow Light Snow
9:53 AM 8.1 °F -13.0 °F 1.0 °F 73% 30.28 in 2.5 mi WNW 24.2 mph 38.0 mph 0.00 in Snow Light Snow
10:08 AM 8.6 °F -13.1 °F 1.4 °F 73% 30.25 in 1.2 mi WNW 26.5 mph 33.4 mph 0.00 in Snow Light Snow
10:47 AM 8.6 °F -12.3 °F -0.4 °F 67% 30.26 in 3.0 mi WNW 24.2 mph 33.4 mph 0.00 in   Overcast
10:53 AM 8.1 °F -12.6 °F 1.0 °F 73% 30.30 in 9.0 mi West 23.0 mph 33.4 mph 0.00 in   Overcast
11:53 AM 10.9 °F -9.6 °F 3.0 °F 70% 30.29 in 6.0 mi WNW 25.3 mph 32.2 mph 0.00 in Snow Light Snow
12:01 PM 10.4 °F -11.0 °F -0.4 °F 62% 30.25 in 6.0 mi WNW 27.6 mph 49.5 mph 0.00 in   Haze
12:53 PM 9.0 °F -13.0 °F 1.9 °F 73% 30.28 in 6.0 mi WNW 27.6 mph 32.2 mph 0.00 in Snow Light Snow
12:59 PM 8.6 °F -12.3 °F 1.4 °F 73% 30.24 in 0.8 mi West 24.2 mph 32.2 mph 0.00 in Snow Light Snow
1:26 PM 8.6 °F -10.0 °F 3.2 °F 79% 30.23 in 1.0 mi WSW 18.4 mph 33.4 mph 0.00 in Snow Light Snow
1:34 PM 8.6 °F -11.0 °F 3.2 °F 79% 30.23 in 0.5 mi WSW 20.7 mph - 0.00 in Snow Snow
1:41 PM 6.8 °F -13.8 °F 3.2 °F 85% 30.23 in 0.2 mi WSW 21.9 mph - 0.00 in Fog , Snow Snow
1:53 PM 8.1 °F -11.2 °F 1.9 °F 76% 30.27 in 0.5 mi WSW 19.6 mph - 0.00 in Snow Snow
1:59 PM 8.6 °F -10.5 °F 1.4 °F 73% 30.23 in 4.0 mi WSW 19.6 mph 26.5 mph 0.00 in Snow Light Snow
2:08 PM 8.6 °F -10.5 °F -0.4 °F 67% 30.23 in 4.0 mi WSW 19.6 mph - 0.00 in   Haze
2:53 PM 9.0 °F -10.0 °F 1.9 °F 73% 30.28 in 4.0 mi WSW 19.6 mph - 0.00 in Snow Light Snow
3:00 PM 8.6 °F -11.4 °F 1.4 °F 73% 30.24 in 1.5 mi West 21.9 mph 27.6 mph 0.00 in Snow Light Snow
3:07 PM 10.4 °F -7.7 °F 1.4 °F 67% 30.24 in 3.0 mi WSW 18.4 mph 27.6 mph 0.00 in Snow Light Snow
3:11 PM 10.4 °F -8.2 °F 3.2 °F 73% 30.24 in 1.8 mi WSW 19.6 mph - 0.00 in Snow Light Snow
3:26 PM 8.6 °F -11.0 °F 3.2 °F 79% 30.25 in 3.0 mi WSW 20.7 mph 25.3 mph 0.00 in Snow Light Snow
3:36 PM 10.4 °F -10.7 °F 3.2 °F 73% 30.24 in 1.8 mi WSW 26.5 mph 32.2 mph 0.00 in Snow Light Snow
3:47 PM 10.4 °F -9.5 °F 1.4 °F 67% 30.25 in 2.5 mi West 23.0 mph 29.9 mph 0.00 in   Haze
3:53 PM 10.0 °F -11.1 °F 1.0 °F 67% 30.29 in 5.0 mi West 26.5 mph 33.4 mph 0.00 in   Haze
4:53 PM 10.9 °F -8.3 °F 3.0 °F 70% 30.28 in 6.0 mi West 21.9 mph 31.1 mph 0.00 in Snow Light Snow
5:53 PM 10.0 °F -7.6 °F 3.9 °F 76% 30.29 in 5.0 mi SW 17.3 mph - 0.00 in Snow Light Snow
6:04 PM 10.4 °F -8.6 °F 3.2 °F 73% 30.25 in 7.0 mi WSW 20.7 mph - 0.00 in Snow Light Snow
6:15 PM 10.4 °F -7.7 °F 3.2 °F 73% 30.26 in 3.0 mi SW 18.4 mph 26.5 mph 0.00 in Snow Light Snow
6:53 PM 10.9 °F -7.5 °F 3.0 °F 70% 30.30 in 7.0 mi WSW 19.6 mph - 0.00 in Snow Light Snow
7:53 PM 10.0 °F -10.8 °F 3.0 °F 73% 30.30 in 2.5 mi SW 25.3 mph 31.1 mph 0.00 in Snow Light Snow
8:24 PM 10.4 °F -8.2 °F 3.2 °F 73% 30.26 in 5.0 mi SW 19.6 mph 27.6 mph 0.00 in Snow Light Snow
8:34 PM 10.4 °F -7.7 °F 3.2 °F 73% 30.26 in 6.0 mi WSW 18.4 mph 28.8 mph 0.00 in Snow Light Snow
8:53 PM 10.0 °F -8.6 °F 3.9 °F 76% 30.30 in 3.0 mi SW 19.6 mph - 0.00 in Snow Light Snow
9:07 PM 10.4 °F -8.2 °F 3.2 °F 73% 30.26 in 2.0 mi SW 19.6 mph 25.3 mph 0.00 in Snow Light Snow
9:18 PM 10.4 °F -6.0 °F 3.2 °F 73% 30.25 in 10.0 mi SW 15.0 mph - 0.00 in Snow Light Snow
9:26 PM 10.4 °F -6.6 °F 3.2 °F 73% 30.25 in 10.0 mi WSW 16.1 mph 24.2 mph 0.00 in   Overcast
9:36 PM 12.2 °F -6.3 °F 1.4 °F 62% 30.25 in 10.0 mi West 20.7 mph 29.9 mph 0.00 in   Overcast
9:53 PM 12.0 °F -4.0 °F 1.9 °F 64% 30.29 in 10.0 mi West 15.0 mph 26.5 mph 0.00 in   Overcast
10:53 PM 12.0 °F -8.1 °F 1.0 °F 61% 30.29 in 10.0 mi West 25.3 mph - N/A   Overcast
11:26 PM 12.2 °F -6.3 °F 5.0 °F 73% 30.25 in 2.5 mi West 20.7 mph - 0.00 in Snow Light Snow
11:42 PM 12.2 °F -5.8 °F 3.2 °F 67% 30.25 in 5.0 mi WNW 19.6 mph 28.8 mph 0.00 in Snow Light Snow
11:53 PM 12.0 °F -7.3 °F 3.9 °F 70% 30.29 in 4.0 mi West 23.0 mph 32.2 mph 0.00 in Snow Light Snow